SYRACUSE 3B

Last updated on Thu Nov 21 2024 00:02:40 GMT+0000 (Coordinated Universal Time)

1 29273U 06033B 24325.25465987 .00000023 00000+0 00000+0 0 9990 2 29273 1.4241 87.3877 0005276 168.6133 258.7368 1.00271744 66923
UTC large
Height (km)
Speed (km/s)
/
Latitude / Longitude
Inclination (degrees)
Orbital Period (minutes)
Azimuth
Elevation
Range (km)
Doppler Factor

Next 0 passes for location: London (51.5072 / 0.1276)

Sorry there are no passes over London.